Weather History for Coeur d'Alene, ID

Change the Weather History Date:

Thursday, October 6, 2011

  Actual Average Record
Temperature  
Mean Temperature 45 °F -  
Max Temperature 46 °F 60 °F 77 °F (2003)
Min Temperature 44 °F 37 °F 28 °F (2012)
Degree Days  
Heating Degree Days 20    
Moisture  
Dew Point 41 °F    
Average Humidity 80    
Maximum Humidity 93    
Minimum Humidity 66    
Precipitation  
Precipitation 0.25 in - - ()
Sea Level Pressure  
Sea Level Pressure 29.72 in    
Wind  
Wind Speed 7 mph (SW)    
Max Wind Speed 10 mph    
Max Gust Speed -    
Visibility 4 miles    
Events      
Averages and records for this station are not official NWS values.
T = Trace of Precipitation, MM = Missing Value Source: NWS Daily Summary

Daily Weather History Graph

Daily Weather History Graph

Search for Another Location

Airport:

Trip Planner

Search our weather history database for the weather conditions in past years. The results will help you decide how hot, cold, wet, or windy it might be!

Date:

Astronomy

Oct. 06, 2011 Rise Set
Actual Time 6:53 AM PDT 6:16 PM PDT
Civil Twilight 6:22 AM PDT 6:47 PM PDT
Nautical Twilight 5:46 AM PDT 7:23 PM PDT
Astronomical Twilight 5:10 AM PDT 7:59 PM PDT
Moon 3:50 PM PDT (10/6) 1:25 AM PDT (10/6)
Length of Visible Light 12h 25m
Length of Day
11h 23m
Waxing Gibbous, 76% of the Moon is Illuminated
Oct 6
Waxing Gibbous
Oct 11
Full
Oct 19
Last Quarter
Oct 26
New
Nov 2
First Quarter

Hourly Weather History & Observations

Time (PDT) Temp. Windchill Dew Point Humidity Pressure Visibility Wind Dir Wind Speed Gust Speed Precip Events Conditions
12:15 AM 46.4 °F 42.4 °F 39.2 °F 76% 29.59 in 10.0 mi West 8.1 mph - N/A   Overcast
12:35 AM 46.4 °F 42.4 °F 39.2 °F 76% 29.59 in 10.0 mi WSW 8.1 mph - N/A   Overcast
12:55 AM 46.4 °F 42.9 °F 39.2 °F 76% 29.59 in 10.0 mi WSW 6.9 mph - N/A   Overcast
1:15 AM 46.4 °F 42.4 °F 39.2 °F 76% 29.59 in 9.0 mi WSW 8.1 mph - N/A   Overcast
1:35 AM 46.4 °F 42.4 °F 39.2 °F 76% 29.59 in 5.0 mi WSW 8.1 mph - N/A   Overcast
1:55 AM 46.4 °F 42.4 °F 42.8 °F 87% 29.59 in 5.0 mi WSW 8.1 mph - N/A   Overcast
2:15 AM 46.4 °F 42.4 °F 39.2 °F 76% 29.60 in 4.0 mi SW 8.1 mph - N/A   Overcast
2:35 AM 46.4 °F 42.9 °F 39.2 °F 76% 29.59 in 4.0 mi SW 6.9 mph - N/A   Overcast
2:55 AM 46.4 °F 42.4 °F 39.2 °F 76% 29.60 in 3.0 mi WSW 8.1 mph - N/A   Overcast
3:15 AM 46.4 °F 42.4 °F 41.0 °F 81% 29.60 in 3.0 mi SW 8.1 mph - N/A   Overcast
3:35 AM 46.4 °F 41.5 °F 37.4 °F 71% 29.60 in 7.0 mi SW 10.4 mph - N/A   Overcast
3:55 AM 46.4 °F 41.5 °F 39.2 °F 76% 29.60 in 8.0 mi WSW 10.4 mph - N/A   Overcast
4:15 AM 46.4 °F 41.5 °F 37.4 °F 71% 29.61 in 5.0 mi WSW 10.4 mph - N/A   Overcast
4:35 AM 46.4 °F 41.5 °F 41.0 °F 81% 29.61 in 2.5 mi WSW 10.4 mph - 0.01 in   Overcast
4:55 AM 46.4 °F 41.9 °F 35.6 °F 66% 29.62 in 2.0 mi WSW 9.2 mph - 0.02 in   Overcast
5:15 AM 46.4 °F 42.4 °F 39.2 °F 76% 29.62 in 2.0 mi SW 8.1 mph - 0.01 in   Overcast
5:35 AM 46.4 °F 42.9 °F 42.8 °F 87% 29.63 in 2.0 mi SSW 6.9 mph - 0.03 in   Overcast
5:55 AM 46.4 °F 44.3 °F 37.4 °F 71% 29.64 in 3.0 mi SSW 4.6 mph - 0.03 in   Overcast
6:15 AM 46.4 °F - 37.4 °F 71% 29.65 in 3.0 mi Calm Calm - 0.01 in   Overcast
6:55 AM 46.4 °F 43.5 °F 41.0 °F 81% 29.67 in 3.0 mi South 5.8 mph - 0.03 in   Overcast
7:15 AM 46.4 °F 42.9 °F 39.2 °F 76% 29.68 in 3.0 mi South 6.9 mph - 0.03 in   Overcast
7:35 AM 44.6 °F 40.7 °F 39.2 °F 81% 29.69 in 5.0 mi South 6.9 mph - 0.03 in   Overcast
7:55 AM 44.6 °F 40.7 °F 39.2 °F 81% 29.69 in 9.0 mi South 6.9 mph - 0.05 in   Overcast
8:35 AM 46.4 °F 43.5 °F 35.6 °F 66% 29.71 in 3.0 mi South 5.8 mph - 0.02 in   Overcast
8:55 AM 46.4 °F 44.3 °F 39.2 °F 76% 29.71 in 2.0 mi South 4.6 mph - 0.02 in   Overcast
9:15 AM 46.4 °F 45.2 °F 35.6 °F 66% 29.71 in 3.0 mi SW 3.5 mph - 0.01 in   Overcast
9:35 AM 46.4 °F 44.3 °F 37.4 °F 71% 29.72 in 5.0 mi South 4.6 mph - 0.01 in   Overcast
9:55 AM 46.4 °F 43.5 °F 35.6 °F 66% 29.72 in 3.0 mi South 5.8 mph - 0.01 in   Overcast
10:15 AM 46.4 °F 43.5 °F 44.6 °F 93% 29.73 in 2.5 mi SSW 5.8 mph - 0.01 in   Overcast
10:35 AM 46.4 °F 45.2 °F 42.8 °F 87% 29.73 in 2.0 mi SSW 3.5 mph - 0.01 in   Overcast
10:55 AM 46.4 °F 42.9 °F 41.0 °F 81% 29.74 in 3.0 mi South 6.9 mph - 0.01 in   Overcast
11:15 AM 46.4 °F 43.5 °F 41.0 °F 81% 29.75 in 3.0 mi SSW 5.8 mph - 0.01 in   Overcast
11:35 AM 46.4 °F 43.5 °F 41.0 °F 81% 29.75 in 2.5 mi South 5.8 mph - 0.01 in   Overcast
11:55 AM 46.4 °F 43.5 °F 42.8 °F 87% 29.75 in 2.0 mi SSW 5.8 mph - 0.01 in   Overcast
12:15 PM 46.4 °F 41.9 °F 42.8 °F 87% 29.76 in 5.0 mi South 9.2 mph - N/A   Overcast
12:35 PM 46.4 °F 42.9 °F 42.8 °F 87% 29.77 in 4.0 mi South 6.9 mph - N/A   Overcast
12:55 PM 46.4 °F 45.2 °F 42.8 °F 87% 29.77 in 4.0 mi South 3.5 mph - N/A   Overcast
1:15 PM 46.4 °F 43.5 °F 42.8 °F 87% 29.78 in 1.8 mi West 5.8 mph - 0.01 in   Overcast
1:35 PM 46.4 °F 43.5 °F 42.8 °F 87% 29.78 in 2.5 mi West 5.8 mph - 0.01 in   Overcast
1:55 PM 46.4 °F 44.3 °F 42.8 °F 87% 29.79 in 2.0 mi West 4.6 mph - 0.02 in   Overcast
2:15 PM 46.4 °F 44.3 °F 42.8 °F 87% 29.79 in 2.0 mi SSW 4.6 mph - 0.01 in   Overcast
2:35 PM 46.4 °F 45.2 °F 42.8 °F 87% 29.80 in 2.0 mi South 3.5 mph - 0.04 in   Overcast
2:55 PM 46.4 °F 45.2 °F 42.8 °F 87% 29.81 in 2.0 mi SSW 3.5 mph - 0.05 in   Overcast
3:15 PM 46.4 °F 43.5 °F 42.8 °F 87% 29.81 in 2.5 mi WSW 5.8 mph - N/A   Overcast
3:35 PM 46.4 °F 41.5 °F 42.8 °F 87% 29.82 in 2.5 mi West 10.4 mph - N/A   Overcast
3:55 PM 46.4 °F 43.5 °F 42.8 °F 87% 29.82 in 3.0 mi West 5.8 mph - N/A   Overcast
4:15 PM 46.4 °F 43.5 °F 42.8 °F 87% 29.82 in 2.5 mi SW 5.8 mph - N/A   Overcast
4:35 PM 46.4 °F 45.2 °F 42.8 °F 87% 29.82 in 3.0 mi SW 3.5 mph - N/A   Overcast
4:55 PM 46.4 °F 44.3 °F 42.8 °F 87% 29.82 in 5.0 mi South 4.6 mph - N/A   Overcast
5:15 PM 46.4 °F 45.2 °F 42.8 °F 87% 29.83 in 10.0 mi South 3.5 mph - N/A   Overcast
5:35 PM 46.4 °F 45.2 °F 41.0 °F 81% 29.84 in 10.0 mi SSW 3.5 mph - N/A   Overcast
5:55 PM 46.4 °F - 41.0 °F 81% 29.85 in 10.0 mi Calm Calm - N/A   Overcast
6:15 PM 46.4 °F - 42.8 °F 87% 29.85 in 5.0 mi Calm Calm - N/A   Overcast
6:35 PM 46.4 °F 45.2 °F 41.0 °F 81% 29.85 in 4.0 mi SSW 3.5 mph - N/A   Overcast
6:55 PM 46.4 °F - 41.0 °F 81% 29.86 in 2.5 mi Calm Calm - N/A   Overcast
7:35 PM 46.4 °F - 41.0 °F 81% 29.87 in 2.0 mi Calm Calm - N/A   Overcast
7:55 PM 46.4 °F - 41.0 °F 81% 29.87 in 2.0 mi Calm Calm - N/A   Overcast
8:15 PM 46.4 °F - 42.8 °F 87% 29.87 in 2.5 mi Calm Calm - N/A   Overcast
8:35 PM 46.4 °F - 41.0 °F 81% 29.87 in 4.0 mi Calm Calm - N/A   Overcast
8:55 PM 46.4 °F - 42.8 °F 87% 29.87 in 4.0 mi Calm Calm - N/A   Overcast
9:15 PM 46.4 °F 44.3 °F 41.0 °F 81% 29.87 in 2.5 mi SSW 4.6 mph - N/A   Overcast
9:35 PM 46.4 °F 42.9 °F 39.2 °F 76% 29.87 in 3.0 mi SSW 6.9 mph - N/A   Overcast
9:55 PM 46.4 °F 42.9 °F 41.0 °F 81% 29.87 in 5.0 mi South 6.9 mph - 0.01 in   Overcast
10:15 PM 46.4 °F 44.3 °F 42.8 °F 87% 29.87 in 5.0 mi South 4.6 mph - N/A   Overcast
10:35 PM 46.4 °F 44.3 °F 42.8 °F 87% 29.87 in 2.5 mi South 4.6 mph - N/A   Overcast
10:55 PM 46.4 °F 43.5 °F 42.8 °F 87% 29.86 in 3.0 mi South 5.8 mph - N/A   Overcast
11:15 PM 46.4 °F 44.3 °F 42.8 °F 87% 29.86 in 4.0 mi SSW 4.6 mph - N/A   Overcast
11:55 PM 46.4 °F 44.3 °F 42.8 °F 87% 29.85 in 9.0 mi South 4.6 mph - N/A   Overcast